Location: Newark
(12.4436°N, 0.6167°W)
Time: 18:26:51
(UTC+00:00)

Vanguard 2 - Pass Details

Date: 12 December 2019
Orbit: 553 x 2938 km, 32.9° (Epoch: 21 January)

Event Time Altitude Azimuth Distance (km) Brightness Sun altitude
Rises 11:01:32 0° 272° (W) 5,412 11.7 52.1°
Reaches altitude 10° 11:09:54 10° 237° (WSW) 3,598 11.2 52.7°
Maximum altitude 11:11:17 10° 228° (SW) 3,423 11.2 52.8°
Drops below altitude 10° 11:12:35 10° 219° (SW) 3,316 11.2 52.9°
Sets 11:18:24 0° 179° (S) 3,658 11.6 53.3°
